Regional Weather Roundup
Issued by NWS Charleston, SC

Current Version | Previous Version | Graphics & Text | Print | Product List | Glossary On
Versions: 1 2 3 4 5 6 7 8 9 10 11 12 13 14 15 16 17 18 19 20 21 22 23 24 25 26 27 28 29 30 31 32 33 34 35 36 37 38 39 40 41 42 43 44 45 46 47 48 49 50
000
ASUS42 KCHS 231125
RWRCHS

REGIONAL WEATHER ROUNDUP
NATIONAL WEATHER SERVICE CHARLESTON SC
700 AM EDT WED JUL 23 2014

NOTE: "FAIR" INDICATES FEW OR NO CLOUDS BELOW 12,000 FEET WITH NO
SIGNIFICANT WEATHER AND/OR OBSTRUCTIONS TO VISIBILITY.

NOT ALL STATIONS ARE QUALITY CONTROLLED BY THE NATIONAL
WEATHER SERVICE. USE DATA WITH CAUTION...ESPECIALLY
DEWPOINT OBSERVATIONS.

SCZ027-030-031-034>040-042>050-231200-
...SOUTH CAROLINA...

CITY           SKY/WX    TMP DP  RH WIND       PRES   REMARKS
N CHARLESTON   PTCLDY    75  73  93 CALM      30.07R
WATERFRONT PRK   N/A     81 N/A N/A N5          N/A
FORT JOHNSON   NOT AVBL
MOUNT PLEASANT FAIR      73  73 100 CALM      30.07R FOG
JOHNS ISLAND   SUNNY     75  64  69 CALM      30.07S
PINOPOLIS        N/A     79  75  89 CALM      29.98S
MONCKS CORNER    N/A     73  73 100 CALM      30.07R FOG
SUMMERVILLE    FOG       72  72 100 CALM      30.08R VSB<1/4
BEAUFORT MCAS  FOG       76  73  91 CALM      30.06R VSB 1/2
BEAUFORT ARPT  FAIR      75  75 100 CALM      30.06R FOG
HILTON HEAD IS CLEAR     73  73 100 CALM      30.08R
GEORGETOWN     NOT AVBL
WALTERBORO     FOG       72 N/A N/A CALM      30.08R VSB 1
ORANGEBURG     FOG       74  72  93 CALM      30.07R VSB 1/4
BARNWELL       FAIR      73  72  94 CALM      30.08R
AIKEN          FAIR      72  72 100 CALM      30.12R
MANNING        CLOUDY    73 N/A N/A MISG      30.07S
KINGSTREE      NOT AVBL
COLUMBIA       FOG       75  73  93 CALM      30.07S VSB<1/4
SUMTER         FOG       74  74 100 S2        30.06S VSB<1/4
FLORENCE       FOG       73  72  96 CALM      30.07S VSB<1/4
MYRTLE BEACH   CLEAR     73  72  94 VRB6      30.07R
N MYRTLE BEACH CLEAR     74  72  93 CALM      30.06S

$$

GAZ063-065-086>088-099>101-113>116-118-119-134-136>141-150-231200-
...GEORGIA...

CITY           SKY/WX    TMP DP  RH WIND       PRES   REMARKS
SAVANNAH ARPT  PTCLDY    75  72  90 CALM      30.06S
HUNTER AAF     CLEAR     75  75 100 CALM      30.05R
FORT STEWART   CLEAR     72  71  95 CALM      30.05S
STATESBORO     NOT AVBL
SYLVANIA       SUNNY     73  73 100 CALM      30.08S FOG
CLAXTON        FAIR     N/A N/A N/A CALM      30.08R HAZE
THOMSON        CLEAR     72  72 100 CALM      30.13S
AUGUSTA-BUSH   PTCLDY    72  71  97 CALM      30.07R FOG
AUGUSTA-DANIEL PTCLDY    75  72  90 CALM      30.09R
SWAINSBORO     FAIR      73  73 100 CALM      30.08S
VIDALIA          N/A     73  73 100 CALM      30.08R
ALMA           MOCLDY    71  70  96 CALM      30.07R FOG
WAYCROSS       FOG       75  75 100 CALM      30.07R VSB 1/2
JESUP          NOT AVBL
BRUNSWICK        N/A     73  72  94 CALM      30.07R VSB 1
SAINT SIMONS   CLEAR     76  74  93 CALM      30.06R

$$

SCZ027-028-034-036>038-045-046-048>050-GAZ119-141-231200-
...LAKE AND SUPPLEMENTAL COASTAL OBSERVATIONS...

STATION/POSITION TIME  TEMP    WIND        PRES    WAVE   SWELL
                       AIR SEA DIR/SP/G            HT/PER HT/PER/DIR
                 (UTC) (F)     (DEG/KT/KT) (MB)    (FT/S) (FT/S/D)
UPR LAKE MARION  NOT AVBL
WINYAH BAY       1100   74     310/  2     1018.0R
LAKE MURRAY      1000   76     230/  2/  2 1017.6S
ACE BASIN NERRS  1100   74        CALM     1018.0S
FORT PULASKI     1100   77        CALM     1018.3R
SAPELO ISLAND    1100   76      20/  2     1018.0S

$$

ANZ835-935-AMZ111-154-330-350-352-354-374-450-454-472-231200-
...C-MAN AND BUOY OBSERVATIONS...

STATION/POSITION TIME  TEMP    WIND        PRES    WAVE   SWELL
                       AIR SEA DIR/SP/G            HT/PER HT/PER/DIR
                 (UTC) (F)     (DEG/KT/KT) (MB)    (FT/S) (FT/S/D)
FOLLY BEACH CMAN 1100   77     340/  2/  4 1018.5R
BUOY 41004       1100   80 82   CALM  /  2 1017.3R   3/ 8   3/ 8
BUOY 41008       1100   82 84  290/  4/  4 1017.7R   2/ 7   2/110/ 7
5E ST. MARYS GA  1100      84                N/A     3/ 7
FRYING PAN BUOY  NOT AVBL
BUOY 41025       1100          VRB 12/ 17  1017.8R   3/ 8   2/140/ 8
CAPE LOOKOUT NC  1100   79     260/  6/  8 1017.6F
BUOY 41002       1018   81 82  200/ 14/ 17 1020.3S   4/ 7   2/120/ 8
BUOY 41010       1100   82 83  160/ 16/ 17 1018.3R   4/ 5   2/110/10
BUOY 41012       NOT AVBL
ST AUGUSTINE FL  1100   76     260/  3/  3 1018.5R
CAPERS NEARSHORE 1000   78     360/  6/  8   N/A
FRIPP NEARSHORE  NOT AVBL


$$



USA.gov is the U.S. government's official web portal to all federal, state and local government web resources and services.